Regional Weather Roundup
Issued by NWS

Home | Current Version | Previous Version | Text Only | Print | Product List | Glossary On
Versions: 1 2 3 4 5 6 7 8 9 10 11 12 13 14 15 16 17 18 19 20 21 22 23 24 25 26 27 28 29 30 31 32 33 34 35 36 37 38 39 40 41 42 43 44 45 46 47 48 49 50
000
ASUS42 KTBW 030717
RWRFL
FLORIDA REGIONAL WEATHER ROUNDUP
NATIONAL WEATHER SERVICE TAMPA BAY RUSKIN FL
300 AM EDT MON AUG 03 2015

NOTE: "FAIR" INDICATES FEW OR NO CLOUDS BELOW 12,000 FEET WITH NO
SIGNIFICANT WEATHER AND/OR OBSTRUCTIONS TO VISIBILITY.


FLZ001>010-012>015-112-114-115-030800-
PANHANDLE FLORIDA

CITY           SKY/WX    TMP DP  RH WIND       PRES   REMARKS
PENSACOLA      PTCLDY    81  76  84 W6        29.85F
PENSACOLA NAS  PTCLDY    81  77  88 CALM      29.84F
MILTON NAS     CLEAR     79  76  90 W7        29.85
CRESTVIEW      CLEAR     80  75  84 W6        29.86F
DUKE FIELD     FAIR      78  73  85 W6        29.84F
VALPARAISO     PTCLDY    80  74  84 VRB5      29.84F
MARY ESTHER    CLEAR     82  75  80 W8        29.83F
TRI COUNTY     FAIR      74  73  97 CALM      29.84F
PANAMA CITY    FAIR      80  75  84 NW7       29.82F
TYNDALL AFB    CLEAR     82  77  85 NW9       29.82F
APALACHICOLA   CLEAR     83  78  85 NW5       29.81S

STATION/POSITION SKY/WX   TEMP    WIND        PRES    WAVE   SWELL
                          AIR SEA DIR/SP/G            HT/PER HT/PER
                          (F)     (DEG/KT/KT) (MB)    (FT/S) (FT/S)
30.1N   87.6W              85 87  250/  8/ 10 1010.2F   3/ 4   2/ 6
29.2N   88.2W              85 87  250/ 12/ 14 1011.4F   3/ 5   2/ 6
28.8N   86.0W              85 86  280/ 19/ 23 1010.5F   5/ 6
PANAMA CITY BEAC           84 86  300/ 12/ 18 1010.1F
CAPE SAN BLAS    NOT AVBL
TOWER C                    85     300/ 20/ 22 1009.3R
28.5N   84.5W              85 84  270/ 23/ 27 1008.8F   6/ 6

$$
FLZ011-016>038-118-127-128-134-139-239-030800-
NORTH FLORIDA

CITY           SKY/WX    TMP DP  RH WIND       PRES   REMARKS
MARIANNA       CLEAR     77  76  96 CALM      29.82F
TALLAHASSEE    CLEAR     78  75  90 W3        29.81F
PERRY          CLOUDY    76  76 100 NW3       29.80F
CROSS CITY       N/A     77  75  93 W5        29.77F
LAKE CITY      CLOUDY    73  73 100 E3        29.81F
GAINESVILLE    CLOUDY    76  72  87 S13       29.81F
MAYPORT NAS    MOCLDY    78  70  76 S12       29.84F
JACKSONVILLE   CLOUDY    76  71  85 S10       29.83F
JAX NAS        MOCLDY    81  71  71 SE14      29.84F
JAX CRAIG      MOCLDY    77  70  79 MISG      29.84F
JAX CECIL      MOCLDY    75  72  88 SE7       29.83F
FERNANDINA BEA FAIR      81  70  69 S9        29.84F
ST AUGUSTINE   PTCLDY    78  71  79 S9        29.86F

STATION/POSITION SKY/WX   TEMP    WIND        PRES    WAVE   SWELL
                          AIR SEA DIR/SP/G            HT/PER HT/PER
                          (F)     (DEG/KT/KT) (MB)    (FT/S) (FT/S)
SHELL POINT                78     340/  4/  5   N/A
KEATON BEACH               76     340/  3/  5 1008.6F
CEDAR KEY                  78        CALM     1009.2F
FERNANDINA                 78 83  160/  6/ 13 1010.6F
30.7N   81.3W                 82                N/A     5/ 6   2/12
MAYPORT                    78 81  180/  6/ 13 1011.7F
31.4N   80.9W              81 83  180/ 19/ 23 1011.3F   6/ 7
ST AUGUSTINE               77 79  180/ 12/ 15 1011.5F

$$
FLZ040-043>046-052-053-057-058-063-144-030800-
INTERIOR CENTRAL FLORIDA

CITY           SKY/WX    TMP DP  RH WIND       PRES   REMARKS
OCALA          MOCLDY    75  72  88 S9        29.82F
THE VILLAGES     N/A     77  77 100 SE9       29.75F
LEESBURG       CLOUDY    78  71  79 S17       29.86F
SANFORD        MOCLDY    75  71  87 S9        29.88F
ORLANDO EXEC   MOCLDY    76  72  87 S10       29.89F
ORLANDO INTL   CLOUDY    75  72  90 S10       29.90F
WINTER HAVEN   CLOUDY    76  72  87 S8        29.90F
LAKELAND       CLOUDY    73  70  88 S7        29.90F
BARTOW         FAIR      73  73 100 S7        29.90F
OKEECHOBEE     PTCLDY   N/A N/A N/A SE5       29.95F

$$
FLZ041-047-054-059-064-141-147-030800-
EAST CENTRAL FLORIDA

CITY           SKY/WX    TMP DP  RH WIND       PRES   REMARKS
DAYTONA BEACH  CLOUDY    75  70  84 S8        29.88F
DELAND           N/A     75  72  88 S6        29.88F
JFK SPACE CTR  PTCLDY    74  71  89 S7        29.89F
CAPE CANAVERAL PTCLDY    74  71  90 S8        29.90F
PATRICK AFB    PTCLDY    75  71  87 S10       29.91F
MELBOURNE      CLEAR     74  71  91 S9        29.92F
VERO BEACH     CLEAR     74  70  87 S7        29.94F
FT PIERCE      CLEAR     74  70  87 S6        29.94F
STUART           N/A     72  68  88 CALM      29.96F

STATION/POSITION SKY/WX   TEMP    WIND        PRES    WAVE   SWELL
                          AIR SEA DIR/SP/G            HT/PER HT/PER
                          (F)     (DEG/KT/KT) (MB)    (FT/S) (FT/S)
28.5N   80.2W              80 83  180/ 14/ 17 1013.5F
28.9N   78.5W              83 84  160/ 16/ 19 1014.4F
TRIDENT PIER               75 78  160/  5/  8 1013.9F
28.4N   80.5W                 76                N/A     2/ 3
27.5N   80.2W                 79                N/A     1/13

$$
FLZ050-056-061-142-242-148-248-149-249-151-251-155-255-
160-260-030800-
WEST CENTRAL FLORIDA

CITY           SKY/WX    TMP DP  RH WIND       PRES   REMARKS
CRYSTAL RIVER  CLOUDY    75  73  94 S3        29.82F
INVERNESS      CLOUDY    75  73  94 S12       29.83F
BROOKSVILLE    CLOUDY    76  74  93 S13       29.86F
ZEPHYRHILLS    FAIR      73  73 100 CALM      29.87F
CLEARWATER     CLOUDY    78  73  84 S13       29.87F
TAMPA INTL     CLOUDY    79  73  82 S13       29.87F
TAMPA EXEC       N/A     79  73  83 S3        29.88
PLANT CITY     CLOUDY    77  73  88 S6        29.91F
MACDILL AFB    CLOUDY    79  77  94 S14       29.87F
PETER O KNIGHT CLOUDY    82  73  74 SW15      29.88F
ST PETERSBURG  CLOUDY    81  72  74 SW9       29.86F
SARASOTA       CLOUDY    81  71  71 SW12      29.88F
VENICE         FAIR      82  73  74 SW8       29.91F

STATION/POSITION SKY/WX   TEMP    WIND        PRES    WAVE   SWELL
                          AIR SEA DIR/SP/G            HT/PER HT/PER
                          (F)     (DEG/KT/KT) (MB)    (FT/S) (FT/S)
CEDAR KEY                  78        CALM     1009.2F
28.5N   84.5W              85 84  270/ 23/ 27 1008.8F   6/ 6
27.3N   84.2W                 84                N/A     5/ 6
CLEARWATER BEACH           80 81              1011.9F
MIDDLE TAMPA BAY           81     240/ 14/ 16 1012.7F
VENICE                     83 83  250/ 12/ 13 1012.9F

$$
FLZ066-069-070-075>078-162-262-165-265-030800-
SOUTHWEST FLORIDA AND KEYS

CITY           SKY/WX    TMP DP  RH WIND       PRES   REMARKS
PUNTA GORDA    MOCLDY    75  74  96 S7        29.93F
FT MYERS       PTCLDY    77  73  87 S5        29.92F
SOUTHWEST INTL PTCLDY    76  72  87 S6        29.93F
NAPLES         MOCLDY    79  75  87 SE5       29.93F
MARCO ISLAND   MOSUNNY   77  72  83 SE3       29.93F
MARATHON       CLOUDY    83  75  77 SE3       29.95F
KEY WEST NAS   CLOUDY    80  74  81 CALM      29.95F
KEY WEST INTL  CLOUDY    82  74  76 S5        29.96S

STATION/POSITION SKY/WX   TEMP    WIND        PRES    WAVE   SWELL
                          AIR SEA DIR/SP/G            HT/PER HT/PER
                          (F)     (DEG/KT/KT) (MB)    (FT/S) (FT/S)
VENICE                     83 83  250/ 12/ 13 1012.9F
NAPLES                        86              1015.4F
26.0N   85.6W              84 84  220/ 10/ 12 1012.6F   2/ 4   2/ 6
DRY TORTUGAS               84      70/  9/ 10 1014.2F
NW FL BAY                  84     190/  4/  6 1015.0
SAND KEY                   81      CALM  /  1 1014.3F
SOMBRERO KEY               83     120/  3/  4 1015.0F
LONG KEY                   84 89  180/  5/  6 1014.9F
MOLASSES REEF              83 87  150/  9/ 11 1015.1F

$$
FLZ067-068-071>074-168-172>174-030800-
SOUTHEAST FLORIDA

CITY           SKY/WX    TMP DP  RH WIND       PRES   REMARKS
W PALM BEACH   PTCLDY    74  71  91 CALM      29.96F
FT LAUDER-EXEC CLEAR     74  73  97 CALM      29.96F
FT LAUDERDALE  PTCLDY    77  74  90 N3        29.95F
POMPANO BEACH  CLEAR     76  72  87 CALM      29.96F
PEMBROKE PINES CLEAR     76  72  87 CALM      29.97F
OPA LOCKA      CLEAR     77  73  87 CALM      29.96F
MIAMI          PTCLDY    80  72  76 SE3       29.96F
WEST KENDALL   PTCLDY    79  73  82 SE5       29.96F
HOMESTEAD      PTCLDY    80  75  86 SE2       29.95F

STATION/POSITION SKY/WX   TEMP    WIND        PRES    WAVE   SWELL
                          AIR SEA DIR/SP/G            HT/PER HT/PER
                          (F)     (DEG/KT/KT) (MB)    (FT/S) (FT/S)
PORT EVERGLADES            83     150/  7/  9 1014.9F
VIRGINIA KEY               83 87  160/  4/  5 1014.9F
LAKE WORTH                 79 83  270/  3/  5 1014.7F
SETTLEMENT POINT           82     160/  9/ 11 1015.1F

$$




USA.gov is the U.S. government's official web portal to all federal, state and local government web resources and services.